Location: Azul
(36.7830°S, 59.8500°W)
Time: 09:33:25
(UTC-03:00)

ISS - Pass Details

Date: 12 December 2019
Orbit: 411 x 421 km, 51.6° (Epoch: 11 December)

Event Time Altitude Azimuth Distance (km) Brightness Sun altitude
Rises 04:15:10 0° 217° (SW) 2,398 0.2 -13.5°
Reaches altitude 10° 04:18:42 10° 179° (S) 1,525 -0.3 -13.0°
Maximum altitude 04:19:43 11° 161° (SSE) 1,462 0.0 -12.8°
Drops below altitude 10° 04:20:45 10° 144° (SE) 1,521 0.5 -12.7°
Sets 04:24:15 0° 106° (ESE) 2,378 1.3 -12.2°
